Location: Le Sartre
(44.8050°N, 2.2123°E)
Time: 11:29:52
(UTC+00:00)

GEOS 3 Rocket - Pass Details

Date: 15 May 2026
Orbit: 767 x 846 km, 115.0° (Epoch: 9 June)

Event Time Altitude Azimuth Distance (km) Brightness Sun altitude
Exits shadow 20:22:54 11° 157° (SSE) 2,332 5.4 -11.0°
Maximum altitude 20:27:53 59° 236° (SW) 959 4.1 -11.7°
Drops below altitude 10° 20:33:12 10° 316° (NW) 2,468 7.7 -12.4°
Sets 20:35:35 0° 320° (NW) 3,411 8.9 -12.7°
